EN

Hourly Weather Luhove

Today, 5 December, Saturday

Time Temperature Precipitation Wind Pressure Humidity
00:00 -5°C° 0 mm 5 mps 765 mmHg 68%
01:00 -5°C° 0 mm 5 mps 765 mmHg 67%
02:00 -5°C° 0 mm 5 mps 765 mmHg 67%
03:00 -5°C° 0 mm 5 mps 765 mmHg 67%
04:00 -6°C° 0 mm 5 mps 765 mmHg 67%
05:00 -6°C° 0 mm 5 mps 765 mmHg 67%
06:00 -6°C° 0 mm 5 mps 765 mmHg 67%
07:00 -6°C° 0 mm 6 mps 765 mmHg 66%
08:00 -6°C° 0 mm 6 mps 766 mmHg 66%
09:00 -5°C° 0 mm 6 mps 766 mmHg 59%
10:00 -3°C° 0 mm 6 mps 766 mmHg 51%
11:00 -2°C° 0 mm 7 mps 766 mmHg 44%
12:00 -2°C° 0 mm 7 mps 766 mmHg 41%
13:00 -2°C° 0 mm 7 mps 766 mmHg 38%
14:00 -2°C° 0 mm 6 mps 766 mmHg 35%
15:00 -3°C° 0 mm 6 mps 766 mmHg 37%
16:00 -4°C° 0 mm 6 mps 766 mmHg 40%
17:00 -5°C° 0 mm 6 mps 766 mmHg 42%
18:00 -6°C° 0 mm 6 mps 766 mmHg 43%
19:00 -6°C° 0 mm 6 mps 767 mmHg 44%
20:00 -6°C° 0 mm 6 mps 767 mmHg 46%
21:00 -6°C° 0 mm 6 mps 767 mmHg 46%
22:00 -8°C° 0 mm 6 mps 767 mmHg 46%
23:00 -8°C° 0 mm 6 mps 767 mmHg 46%

Tomorrow, 6 December, Sunday

Time Temperature Precipitation Wind Pressure Humidity
00:00 -8°C° 0 mm 6 mps 767 mmHg 46%
01:00 -8°C° 0 mm 6 mps 767 mmHg 46%
02:00 -9°C° 0 mm 6 mps 768 mmHg 47%
03:00 -9°C° 0 mm 6 mps 768 mmHg 48%
04:00 -9°C° 0 mm 6 mps 767 mmHg 49%
05:00 -10°C° 0 mm 6 mps 767 mmHg 51%
06:00 -10°C° 0 mm 6 mps 767 mmHg 52%
07:00 -10°C° 0 mm 6 mps 768 mmHg 54%
08:00 -11°C° 0 mm 7 mps 768 mmHg 55%
09:00 -9°C° 0 mm 7 mps 768 mmHg 55%
10:00 -8°C° 0 mm 7 mps 768 mmHg 54%
11:00 -7°C° 0 mm 7 mps 768 mmHg 53%
12:00 -7°C° 0 mm 7 mps 767 mmHg 53%
13:00 -7°C° 0 mm 7 mps 767 mmHg 52%
14:00 -6°C° 0 mm 7 mps 767 mmHg 52%
15:00 -7°C° 0 mm 7 mps 767 mmHg 55%
16:00 -8°C° 0 mm 7 mps 767 mmHg 58%
17:00 -9°C° 0 mm 7 mps 767 mmHg 61%
18:00 -9°C° 0 mm 7 mps 767 mmHg 63%
19:00 -11°C° 0 mm 7 mps 767 mmHg 65%
20:00 -11°C° 0 mm 7 mps 767 mmHg 67%
21:00 -11°C° 0 mm 7 mps 767 mmHg 66%
22:00 -11°C° 0 mm 7 mps 767 mmHg 66%
23:00 -11°C° 0 mm 7 mps 767 mmHg 65%

Day after tomorrow, 7 December, Monday

Time Temperature Precipitation Wind Pressure Humidity
00:00 -11°C° 0 mm 7 mps 767 mmHg 66%
01:00 -12°C° 0 mm 8 mps 767 mmHg 66%
02:00 -12°C° 0 mm 8 mps 767 mmHg 66%
03:00 -12°C° 0 mm 8 mps 767 mmHg 67%
04:00 -12°C° 0 mm 8 mps 767 mmHg 67%
05:00 -12°C° 0 mm 8 mps 766 mmHg 67%
06:00 -12°C° 0 mm 8 mps 766 mmHg 67%
07:00 -12°C° 0 mm 8 mps 767 mmHg 66%
08:00 -12°C° 0 mm 8 mps 767 mmHg 65%
09:00 -11°C° 0 mm 8 mps 767 mmHg 59%
10:00 -10°C° 0 mm 8 mps 766 mmHg 52%
11:00 -7°C° 0 mm 8 mps 766 mmHg 46%
12:00 -7°C° 0 mm 8 mps 766 mmHg 44%
13:00 -6°C° 0 mm 8 mps 766 mmHg 43%
14:00 -6°C° 0 mm 8 mps 766 mmHg 41%
15:00 -7°C° 0 mm 8 mps 766 mmHg 43%
16:00 -7°C° 0 mm 8 mps 766 mmHg 46%
17:00 -8°C° 0 mm 7 mps 766 mmHg 49%
18:00 -9°C° 0 mm 7 mps 766 mmHg 51%
19:00 -9°C° 0 mm 7 mps 766 mmHg 54%
20:00 -9°C° 0 mm 7 mps 766 mmHg 57%
21:00 -9°C° 0 mm 7 mps 765 mmHg 58%
22:00 -11°C° 0 mm 7 mps 765 mmHg 60%
23:00 -11°C° 0 mm 7 mps 765 mmHg 61%

8 December, Tuesday

Time Temperature Precipitation Wind Pressure Humidity
00:00 -11°C° 0 mm 8 mps 765 mmHg 61%
01:00 -11°C° 0 mm 8 mps 765 mmHg 62%
02:00 -11°C° 0 mm 8 mps 764 mmHg 62%
03:00 -11°C° 0 mm 8 mps 764 mmHg 63%
04:00 -11°C° 0 mm 8 mps 764 mmHg 63%
05:00 -11°C° 0 mm 8 mps 764 mmHg 63%
06:00 -11°C° 0 mm 8 mps 764 mmHg 63%
07:00 -11°C° 0 mm 8 mps 764 mmHg 63%
08:00 -10°C° 0 mm 8 mps 764 mmHg 63%
09:00 -8°C° 0 mm 8 mps 764 mmHg 61%
10:00 -6°C° 0 mm 8 mps 764 mmHg 59%
11:00 -5°C° 0 mm 8 mps 763 mmHg 57%
12:00 -4°C° 0 mm 8 mps 763 mmHg 56%
13:00 -4°C° 0 mm 8 mps 763 mmHg 56%
14:00 -2°C° 0 mm 8 mps 763 mmHg 55%
15:00 -3°C° 0 mm 7 mps 763 mmHg 58%
16:00 -4°C° 0 mm 7 mps 763 mmHg 61%
17:00 -5°C° 0 mm 6 mps 763 mmHg 63%
18:00 -6°C° 0 mm 7 mps 763 mmHg 64%
19:00 -6°C° 0 mm 7 mps 763 mmHg 65%
20:00 -7°C° 0 mm 7 mps 763 mmHg 66%
21:00 -7°C° 0 mm 7 mps 763 mmHg 67%
22:00 -6°C° 0 mm 6 mps 763 mmHg 67%
23:00 -6°C° 0 mm 6 mps 763 mmHg 68%

9 December, Wednesday

Time Temperature Precipitation Wind Pressure Humidity
00:00 -6°C° 0 mm 6 mps 763 mmHg 69%
01:00 -6°C° 0 mm 6 mps 763 mmHg 70%
02:00 -6°C° 0 mm 6 mps 763 mmHg 70%
03:00 -6°C° 0 mm 6 mps 763 mmHg 71%
04:00 -6°C° 0 mm 6 mps 763 mmHg 72%
05:00 -6°C° 0 mm 6 mps 763 mmHg 73%
06:00 -6°C° 0 mm 6 mps 763 mmHg 75%
07:00 -6°C° 0 mm 6 mps 763 mmHg 76%
08:00 -6°C° 0 mm 6 mps 763 mmHg 77%
09:00 -6°C° 0 mm 6 mps 763 mmHg 77%
10:00 -5°C° 0 mm 6 mps 763 mmHg 76%
11:00 -4°C° 0 mm 6 mps 763 mmHg 76%
12:00 -4°C° 0 mm 6 mps 763 mmHg 76%
13:00 -4°C° 0 mm 5 mps 763 mmHg 76%
14:00 -4°C° 0 mm 5 mps 763 mmHg 77%
15:00 -4°C° 0 mm 5 mps 763 mmHg 80%
16:00 -4°C° 0 mm 5 mps 763 mmHg 84%
17:00 -4°C° 0 mm 4 mps 763 mmHg 87%
18:00 -3°C° 0 mm 4 mps 763 mmHg 86%
19:00 -4°C° 0 mm 5 mps 763 mmHg 84%
20:00 -4°C° 0 mm 5 mps 763 mmHg 82%
21:00 -4°C° 0 mm 5 mps 763 mmHg 82%
22:00 -4°C° 0 mm 5 mps 763 mmHg 81%
23:00 -2°C° 0 mm 5 mps 763 mmHg 81%

10 December, Thursday

Time Temperature Precipitation Wind Pressure Humidity
00:00 -2°C° 0 mm 5 mps 763 mmHg 81%
01:00 -2°C° 0 mm 5 mps 763 mmHg 81%
02:00 -2°C° 0 mm 5 mps 763 mmHg 81%
03:00 -2°C° 0 mm 5 mps 763 mmHg 81%
04:00 -2°C° 0 mm 5 mps 763 mmHg 80%
05:00 -2°C° 0 mm 5 mps 762 mmHg 80%
06:00 -2°C° 0 mm 5 mps 762 mmHg 78%
07:00 -2°C° 0 mm 5 mps 762 mmHg 76%
08:00 -2°C° 0 mm 5 mps 762 mmHg 74%
09:00 -1°C° 0 mm 5 mps 762 mmHg 74%
10:00 -2°C° 0 mm 6 mps 762 mmHg 73%
11:00 -2°C° 0 mm 6 mps 762 mmHg 72%
12:00 -1°C° 0 mm 6 mps 762 mmHg 72%
13:00 -1°C° 0 mm 6 mps 761 mmHg 71%
14:00 -1°C° 0 mm 6 mps 761 mmHg 71%
15:00 -1°C° 0 mm 5 mps 761 mmHg 75%
16:00 -1°C° 0 mm 5 mps 761 mmHg 79%
17:00 -2°C° 0 mm 5 mps 761 mmHg 83%
18:00 -4°C° 0 mm 5 mps 761 mmHg 84%
19:00 -4°C° 0 mm 6 mps 760 mmHg 85%
20:00 -4°C° 0 mm 6 mps 760 mmHg 86%
21:00 -3°C° 0 mm 6 mps 760 mmHg 84%
22:00 -3°C° 0 mm 6 mps 760 mmHg 83%
23:00 -2°C° 0 mm 6 mps 760 mmHg 81%
Show more